owner,sensor,date,latitude,longitude,vertical_datum,wind_speed,wind_to_direction,wind_speed_of_gust,qcFlag 
TCOON,ioos:station:TCOON:518:1,2015-05-01T00:00:00Z,29.5150,-94.5133,0.0,1.7,228.0,4.2,'11111222,11111222,11111222' 
TCOON,ioos:station:TCOON:518:1,2015-05-01T00:06:00Z,29.5150,-94.5133,0.0,2.5,217.0,4.4,'11111222,11111222,11111222' 
TCOON,ioos:station:TCOON:518:1,2015-05-01T00:12:00Z,29.5150,-94.5133,0.0,1.7,216.0,3.4,'11111222,11111222,11111222' 
TCOON,ioos:station:TCOON:518:1,2015-05-01T00:18:00Z,29.5150,-94.5133,0.0,2.9,211.0,5.1,'11111222,11111222,11111222' 
TCOON,ioos:station:TCOON:518:1,2015-05-01T00:24:00Z,29.5150,-94.5133,0.0,2.4,219.0,4.0,'11111222,11111222,11111222' 
TCOON,ioos:station:TCOON:518:1,2015-05-01T00:30:00Z,29.5150,-94.5133,0.0,2.3,215.0,4.2,'11111222,11111222,11111222' 
TCOON,ioos:station:TCOON:518:1,2015-05-01T00:36:00Z,29.5150,-94.5133,0.0,2.3,218.0,3.6,'11111222,11111222,11111222' 
TCOON,ioos:station:TCOON:518:1,2015-05-01T00:42:00Z,29.5150,-94.5133,0.0,2.3,218.0,3.6,'1111122,1111122,1111122' 
TCOON,ioos:station:TCOON:518:1,2015-05-01T00:48:00Z,29.5150,-94.5133,0.0,1.6,219.0,2.7,'11111222,11111222,11111222' 
TCOON,ioos:station:TCOON:518:1,2015-05-01T00:54:00Z,29.5150,-94.5133,0.0,1.8,222.0,3.3,'11111222,11111222,11111222' 
TCOON,ioos:station:TCOON:518:1,2015-05-01T01:00:00Z,29.5150,-94.5133,0.0,2.2,221.0,3.7,'11111222,11111222,11111222' 
TCOON,ioos:station:TCOON:518:1,2015-05-01T01:06:00Z,29.5150,-94.5133,0.0,2.8,218.0,5.2,'11111222,11111222,11111222' 
TCOON,ioos:station:TCOON:518:1,2015-05-01T01:12:00Z,29.5150,-94.5133,0.0,2.6,226.0,4.1,'11111222,11111222,11111222' 
TCOON,ioos:station:TCOON:518:1,2015-05-01T01:18:00Z,29.5150,-94.5133,0.0,2.6,226.0,4.1,'1111122,1111122,1111122' 
TCOON,ioos:station:TCOON:518:1,2015-05-01T01:24:00Z,29.5150,-94.5133,0.0,2.2,225.0,3.6,'11111222,11111222,11111222' 
TCOON,ioos:station:TCOON:518:1,2015-05-01T01:30:00Z,29.5150,-94.5133,0.0,2.0,226.0,3.7,'11111222,11111222,11111222' 
TCOON,ioos:station:TCOON:518:1,2015-05-01T01:36:00Z,29.5150,-94.5133,0.0,2.5,228.0,3.7,'11111222,11111222,11111222' 
TCOON,ioos:station:TCOON:518:1,2015-05-01T01:42:00Z,29.5150,-94.5133,0.0,2.1,222.0,5.0,'11111222,11111222,11111222' 
TCOON,ioos:station:TCOON:518:1,2015-05-01T01:48:00Z,29.5150,-94.5133,0.0,2.3,225.0,3.5,'11111222,11111222,11111222' 
TCOON,ioos:station:TCOON:518:1,2015-05-01T01:54:00Z,29.5150,-94.5133,0.0,2.3,222.0,4.2,'11111222,11111222,11111222' 
TCOON,ioos:station:TCOON:518:1,2015-05-01T02:00:00Z,29.5150,-94.5133,0.0,2.4,217.0,4.1,'11111222,11111222,11111222' 
TCOON,ioos:station:TCOON:518:1,2015-05-01T02:06:00Z,29.5150,-94.5133,0.0,3.3,233.0,4.4,'11111222,11111222,11111222' 
TCOON,ioos:station:TCOON:518:1,2015-05-01T02:12:00Z,29.5150,-94.5133,0.0,3.0,238.0,4.6,'11111222,11111222,11111222' 
TCOON,ioos:station:TCOON:518:1,2015-05-01T02:18:00Z,29.5150,-94.5133,0.0,3.0,238.0,4.6,'1111122,1111122,1111122' 
TCOON,ioos:station:TCOON:518:1,2015-05-01T02:24:00Z,29.5150,-94.5133,0.0,2.7,233.0,3.9,'11111222,11111222,11111222' 
TCOON,ioos:station:TCOON:518:1,2015-05-01T02:30:00Z,29.5150,-94.5133,0.0,3.2,234.0,5.1,'11111222,11111222,11111222' 
TCOON,ioos:station:TCOON:518:1,2015-05-01T02:36:00Z,29.5150,-94.5133,0.0,2.9,237.0,5.1,'11111222,11111222,11111222' 
TCOON,ioos:station:TCOON:518:1,2015-05-01T02:42:00Z,29.5150,-94.5133,0.0,3.1,234.0,4.2,'11111222,11111222,11111222' 
TCOON,ioos:station:TCOON:518:1,2015-05-01T02:48:00Z,29.5150,-94.5133,0.0,2.9,234.0,4.2,'11111222,11111222,11111222' 
TCOON,ioos:station:TCOON:518:1,2015-05-01T02:54:00Z,29.5150,-94.5133,0.0,3.3,235.0,4.6,'11111222,11111222,11111222' 
TCOON,ioos:station:TCOON:518:1,2015-05-01T03:00:00Z,29.5150,-94.5133,0.0,2.8,229.0,4.5,'11111222,11111222,11111222' 
TCOON,ioos:station:TCOON:518:1,2015-05-01T03:06:00Z,29.5150,-94.5133,0.0,2.8,236.0,4.2,'11111222,11111222,11111222' 
TCOON,ioos:station:TCOON:518:1,2015-05-01T03:12:00Z,29.5150,-94.5133,0.0,2.8,236.0,4.2,'1111122,1111122,1111122' 
TCOON,ioos:station:TCOON:518:1,2015-05-01T03:18:00Z,29.5150,-94.5133,0.0,3.3,236.0,4.7,'11111222,11111222,11111222' 
TCOON,ioos:station:TCOON:518:1,2015-05-01T03:24:00Z,29.5150,-94.5133,0.0,2.5,240.0,4.1,'11111222,11111222,11111222' 
TCOON,ioos:station:TCOON:518:1,2015-05-01T03:30:00Z,29.5150,-94.5133,0.0,2.9,239.0,3.9,'11111222,11111222,11111222' 
TCOON,ioos:station:TCOON:518:1,2015-05-01T03:36:00Z,29.5150,-94.5133,0.0,3.1,239.0,4.7,'11111222,11111222,11111222' 
TCOON,ioos:station:TCOON:518:1,2015-05-01T03:42:00Z,29.5150,-94.5133,0.0,3.4,238.0,4.6,'11111222,11111222,11111222' 
TCOON,ioos:station:TCOON:518:1,2015-05-01T03:48:00Z,29.5150,-94.5133,0.0,3.4,242.0,5.1,'11111222,11111222,11111222' 
TCOON,ioos:station:TCOON:518:1,2015-05-01T03:54:00Z,29.5150,-94.5133,0.0,2.9,238.0,4.2,'11111222,11111222,11111222' 
TCOON,ioos:station:TCOON:518:1,2015-05-01T04:00:00Z,29.5150,-94.5133,0.0,3.2,242.0,4.4,'11111222,11111222,11111222' 
TCOON,ioos:station:TCOON:518:1,2015-05-01T04:06:00Z,29.5150,-94.5133,0.0,2.6,239.0,4.1,'11111222,11111222,11111222' 
TCOON,ioos:station:TCOON:518:1,2015-05-01T04:12:00Z,29.5150,-94.5133,0.0,3.1,247.0,4.1,'11111222,11111222,11111222' 
TCOON,ioos:station:TCOON:518:1,2015-05-01T04:18:00Z,29.5150,-94.5133,0.0,3.1,247.0,4.1,'1111122,1111122,1111122' 
TCOON,ioos:station:TCOON:518:1,2015-05-01T04:24:00Z,29.5150,-94.5133,0.0,2.5,244.0,3.7,'11111222,11111222,11111222' 
TCOON,ioos:station:TCOON:518:1,2015-05-01T04:30:00Z,29.5150,-94.5133,0.0,3.2,240.0,4.5,'11111222,11111222,11111222' 
TCOON,ioos:station:TCOON:518:1,2015-05-01T04:36:00Z,29.5150,-94.5133,0.0,2.3,252.0,4.6,'11111222,11111222,11111222' 
TCOON,ioos:station:TCOON:518:1,2015-05-01T04:42:00Z,29.5150,-94.5133,0.0,2.3,252.0,3.4,'11111222,11111222,11111222' 
TCOON,ioos:station:TCOON:518:1,2015-05-01T04:48:00Z,29.5150,-94.5133,0.0,2.1,259.0,2.7,'11111222,11111222,11111222' 
TCOON,ioos:station:TCOON:518:1,2015-05-01T04:54:00Z,29.5150,-94.5133,0.0,2.7,264.0,3.2,'11111222,11111222,11111222' 
TCOON,ioos:station:TCOON:518:1,2015-05-01T05:00:00Z,29.5150,-94.5133,0.0,2.3,263.0,3.2,'11111222,11111222,11111222' 
TCOON,ioos:station:TCOON:518:1,2015-05-01T05:06:00Z,29.5150,-94.5133,0.0,2.3,257.0,3.2,'11111222,11111222,11111222' 
TCOON,ioos:station:TCOON:518:1,2015-05-01T05:12:00Z,29.5150,-94.5133,0.0,2.8,264.0,3.1,'11111222,11111222,11111222' 
TCOON,ioos:station:TCOON:518:1,2015-05-01T05:18:00Z,29.5150,-94.5133,0.0,2.8,264.0,3.1,'1111122,1111122,1111122' 
TCOON,ioos:station:TCOON:518:1,2015-05-01T05:24:00Z,29.5150,-94.5133,0.0,2.4,265.0,3.5,'11111222,11111222,11111222' 
TCOON,ioos:station:TCOON:518:1,2015-05-01T05:30:00Z,29.5150,-94.5133,0.0,2.8,269.0,3.6,'11111222,11111222,11111222' 
TCOON,ioos:station:TCOON:518:1,2015-05-01T05:36:00Z,29.5150,-94.5133,0.0,2.4,273.0,3.7,'11111222,11111222,11111222' 
TCOON,ioos:station:TCOON:518:1,2015-05-01T05:42:00Z,29.5150,-94.5133,0.0,2.7,265.0,3.4,'11111222,11111222,11111222' 
TCOON,ioos:station:TCOON:518:1,2015-05-01T05:48:00Z,29.5150,-94.5133,0.0,2.2,270.0,3.5,'11111222,11111222,11111222' 
TCOON,ioos:station:TCOON:518:1,2015-05-01T05:54:00Z,29.5150,-94.5133,0.0,3.0,264.0,4.0,'11111222,11111222,11111222' 
TCOON,ioos:station:TCOON:518:1,2015-05-01T06:06:00Z,29.5150,-94.5133,0.0,2.8,264.0,3.9,'11111222,11111222,11111222' 
TCOON,ioos:station:TCOON:518:1,2015-05-01T06:18:00Z,29.5150,-94.5133,0.0,3.1,274.0,4.2,'1111122,1111122,1111122' 
TCOON,ioos:station:TCOON:518:1,2015-05-01T06:42:00Z,29.5150,-94.5133,0.0,2.7,255.0,3.7,'11111222,11111222,11111222' 
TCOON,ioos:station:TCOON:518:1,2015-05-01T07:00:00Z,29.5150,-94.5133,0.0,2.6,263.0,3.3,'11111222,11111222,11111222' 
TCOON,ioos:station:TCOON:518:1,2015-05-01T07:12:00Z,29.5150,-94.5133,0.0,2.7,256.0,3.6,'11111222,11111222,11111222' 
TCOON,ioos:station:TCOON:518:1,2015-05-01T07:18:00Z,29.5150,-94.5133,0.0,2.7,256.0,3.6,'1111122,1111122,1111122' 
TCOON,ioos:station:TCOON:518:1,2015-05-01T07:30:00Z,29.5150,-94.5133,0.0,2.6,260.0,3.5,'11111222,11111222,11111222' 
TCOON,ioos:station:TCOON:518:1,2015-05-01T07:36:00Z,29.5150,-94.5133,0.0,2.6,267.0,3.5,'11111222,11111222,11111222' 
TCOON,ioos:station:TCOON:518:1,2015-05-01T07:42:00Z,29.5150,-94.5133,0.0,3.0,260.0,3.6,'11111222,11111222,11111222' 
TCOON,ioos:station:TCOON:518:1,2015-05-01T07:48:00Z,29.5150,-94.5133,0.0,2.9,263.0,4.0,'11111222,11111222,11111222' 
TCOON,ioos:station:TCOON:518:1,2015-05-01T07:54:00Z,29.5150,-94.5133,0.0,2.1,263.0,3.4,'11111222,11111222,11111222' 
TCOON,ioos:station:TCOON:518:1,2015-05-01T08:00:00Z,29.5150,-94.5133,0.0,2.2,271.0,2.8,'11111222,11111222,11111222' 
TCOON,ioos:station:TCOON:518:1,2015-05-01T08:06:00Z,29.5150,-94.5133,0.0,2.0,277.0,3.1,'11111222,11111222,11111222' 
TCOON,ioos:station:TCOON:518:1,2015-05-01T08:12:00Z,29.5150,-94.5133,0.0,2.4,274.0,3.3,'11111222,11111222,11111222' 
TCOON,ioos:station:TCOON:518:1,2015-05-01T08:18:00Z,29.5150,-94.5133,0.0,2.4,274.0,3.3,'1111122,1111122,1111122' 
TCOON,ioos:station:TCOON:518:1,2015-05-01T08:24:00Z,29.5150,-94.5133,0.0,2.4,273.0,3.3,'11111222,11111222,11111222' 
TCOON,ioos:station:TCOON:518:1,2015-05-01T08:30:00Z,29.5150,-94.5133,0.0,2.5,271.0,3.6,'11111222,11111222,11111222' 
TCOON,ioos:station:TCOON:518:1,2015-05-01T08:42:00Z,29.5150,-94.5133,0.0,2.2,264.0,3.0,'11111222,11111222,11111222' 
TCOON,ioos:station:TCOON:518:1,2015-05-01T08:48:00Z,29.5150,-94.5133,0.0,2.3,269.0,3.0,'11111222,11111222,11111222' 
TCOON,ioos:station:TCOON:518:1,2015-05-01T08:54:00Z,29.5150,-94.5133,0.0,2.2,264.0,3.1,'11111222,11111222,11111222' 
TCOON,ioos:station:TCOON:518:1,2015-05-01T09:00:00Z,29.5150,-94.5133,0.0,1.8,260.0,3.1,'11111222,11111222,11111222' 
TCOON,ioos:station:TCOON:518:1,2015-05-01T09:06:00Z,29.5150,-94.5133,0.0,1.8,255.0,2.3,'11111222,11111222,11111222' 
TCOON,ioos:station:TCOON:518:1,2015-05-01T09:12:00Z,29.5150,-94.5133,0.0,2.7,263.0,3.7,'11111222,11111222,11111222' 
TCOON,ioos:station:TCOON:518:1,2015-05-01T09:18:00Z,29.5150,-94.5133,0.0,2.7,263.0,3.7,'1111122,1111122,1111122' 
TCOON,ioos:station:TCOON:518:1,2015-05-01T09:24:00Z,29.5150,-94.5133,0.0,2.5,265.0,3.5,'11111222,11111222,11111222' 
TCOON,ioos:station:TCOON:518:1,2015-05-01T09:30:00Z,29.5150,-94.5133,0.0,2.0,271.0,3.0,'11111222,11111222,11111222' 
TCOON,ioos:station:TCOON:518:1,2015-05-01T09:36:00Z,29.5150,-94.5133,0.0,2.1,295.0,2.6,'11111222,11111222,11111222' 
TCOON,ioos:station:TCOON:518:1,2015-05-01T09:42:00Z,29.5150,-94.5133,0.0,2.2,290.0,2.7,'11111222,11111222,11111222' 
TCOON,ioos:station:TCOON:518:1,2015-05-01T09:48:00Z,29.5150,-94.5133,0.0,2.5,295.0,2.9,'11111222,11111222,11111222' 
TCOON,ioos:station:TCOON:518:1,2015-05-01T09:54:00Z,29.5150,-94.5133,0.0,3.1,299.0,3.7,'11111222,11111222,11111222' 
TCOON,ioos:station:TCOON:518:1,2015-05-01T10:00:00Z,29.5150,-94.5133,0.0,3.4,296.0,4.0,'11111222,11111222,11111222' 
TCOON,ioos:station:TCOON:518:1,2015-05-01T10:06:00Z,29.5150,-94.5133,0.0,3.5,291.0,4.2,'11111222,11111222,11111222' 
TCOON,ioos:station:TCOON:518:1,2015-05-01T10:12:00Z,29.5150,-94.5133,0.0,3.5,291.0,4.2,'1111122,1111122,1111122' 
TCOON,ioos:station:TCOON:518:1,2015-05-01T10:18:00Z,29.5150,-94.5133,0.0,3.2,287.0,4.1,'11111222,11111222,11111222' 
TCOON,ioos:station:TCOON:518:1,2015-05-01T10:24:00Z,29.5150,-94.5133,0.0,3.0,287.0,3.8,'11111222,11111222,11111222' 
TCOON,ioos:station:TCOON:518:1,2015-05-01T10:30:00Z,29.5150,-94.5133,0.0,3.1,302.0,3.7,'11111222,11111222,11111222' 
TCOON,ioos:station:TCOON:518:1,2015-05-01T10:36:00Z,29.5150,-94.5133,0.0,3.3,305.0,3.9,'11111222,11111222,11111222' 
TCOON,ioos:station:TCOON:518:1,2015-05-01T10:42:00Z,29.5150,-94.5133,0.0,2.8,285.0,3.9,'11111222,11111222,11111222' 
TCOON,ioos:station:TCOON:518:1,2015-05-01T10:48:00Z,29.5150,-94.5133,0.0,3.5,297.0,4.2,'11111222,11111222,11111222' 
TCOON,ioos:station:TCOON:518:1,2015-05-01T10:54:00Z,29.5150,-94.5133,0.0,3.1,305.0,4.1,'11111222,11111222,11111222' 
TCOON,ioos:station:TCOON:518:1,2015-05-01T11:00:00Z,29.5150,-94.5133,0.0,2.9,298.0,3.7,'11111222,11111222,11111222' 
TCOON,ioos:station:TCOON:518:1,2015-05-01T11:06:00Z,29.5150,-94.5133,0.0,3.0,298.0,3.4,'11111222,11111222,11111222' 
TCOON,ioos:station:TCOON:518:1,2015-05-01T11:12:00Z,29.5150,-94.5133,0.0,2.9,300.0,3.6,'11111222,11111222,11111222' 
TCOON,ioos:station:TCOON:518:1,2015-05-01T11:18:00Z,29.5150,-94.5133,0.0,2.9,300.0,3.6,'1111122,1111122,1111122' 
TCOON,ioos:station:TCOON:518:1,2015-05-01T11:24:00Z,29.5150,-94.5133,0.0,3.3,309.0,4.6,'11111222,11111222,11111222' 
TCOON,ioos:station:TCOON:518:1,2015-05-01T11:30:00Z,29.5150,-94.5133,0.0,4.0,302.0,4.9,'11111222,11111222,11111222' 
TCOON,ioos:station:TCOON:518:1,2015-05-01T11:36:00Z,29.5150,-94.5133,0.0,3.7,300.0,4.8,'11111222,11111222,11111222' 
TCOON,ioos:station:TCOON:518:1,2015-05-01T11:42:00Z,29.5150,-94.5133,0.0,3.3,296.0,4.9,'11111222,11111222,11111222' 
TCOON,ioos:station:TCOON:518:1,2015-05-01T11:48:00Z,29.5150,-94.5133,0.0,4.2,303.0,5.4,'11111222,11111222,11111222' 
TCOON,ioos:station:TCOON:518:1,2015-05-01T11:54:00Z,29.5150,-94.5133,0.0,3.0,297.0,4.8,'11111222,11111222,11111222' 
TCOON,ioos:station:TCOON:518:1,2015-05-01T12:00:00Z,29.5150,-94.5133,0.0,4.1,305.0,5.3,'11111222,11111222,11111222' 
TCOON,ioos:station:TCOON:518:1,2015-05-01T12:06:00Z,29.5150,-94.5133,0.0,3.6,299.0,5.2,'11111222,11111222,11111222' 
TCOON,ioos:station:TCOON:518:1,2015-05-01T12:12:00Z,29.5150,-94.5133,0.0,3.6,299.0,5.2,'1111122,1111122,1111122' 
TCOON,ioos:station:TCOON:518:1,2015-05-01T12:18:00Z,29.5150,-94.5133,0.0,3.1,306.0,4.6,'11111222,11111222,11111222' 
TCOON,ioos:station:TCOON:518:1,2015-05-01T12:24:00Z,29.5150,-94.5133,0.0,3.1,302.0,4.6,'11111222,11111222,11111222' 
TCOON,ioos:station:TCOON:518:1,2015-05-01T12:30:00Z,29.5150,-94.5133,0.0,3.5,315.0,4.2,'11111222,11111222,11111222' 
TCOON,ioos:station:TCOON:518:1,2015-05-01T12:36:00Z,29.5150,-94.5133,0.0,3.9,311.0,5.0,'11111222,11111222,11111222' 
TCOON,ioos:station:TCOON:518:1,2015-05-01T12:42:00Z,29.5150,-94.5133,0.0,4.5,311.0,5.5,'11111222,11111222,11111222' 
TCOON,ioos:station:TCOON:518:1,2015-05-01T12:48:00Z,29.5150,-94.5133,0.0,4.8,314.0,6.0,'11111222,11111222,11111222' 
TCOON,ioos:station:TCOON:518:1,2015-05-01T12:54:00Z,29.5150,-94.5133,0.0,5.5,317.0,6.2,'11111222,11111222,11111222' 
TCOON,ioos:station:TCOON:518:1,2015-05-01T13:00:00Z,29.5150,-94.5133,0.0,4.5,308.0,5.7,'11111222,11111222,11111222' 
TCOON,ioos:station:TCOON:518:1,2015-05-01T13:06:00Z,29.5150,-94.5133,0.0,5.4,309.0,6.5,'11111222,11111222,11111222' 
TCOON,ioos:station:TCOON:518:1,2015-05-01T13:12:00Z,29.5150,-94.5133,0.0,4.9,317.0,5.9,'11111222,11111222,11111222' 
TCOON,ioos:station:TCOON:518:1,2015-05-01T13:30:00Z,29.5150,-94.5133,0.0,4.7,312.0,6.1,'11111222,11111222,11111222' 
TCOON,ioos:station:TCOON:518:1,2015-05-01T13:36:00Z,29.5150,-94.5133,0.0,4.9,311.0,6.2,'11111222,11111222,11111222' 
TCOON,ioos:station:TCOON:518:1,2015-05-01T13:42:00Z,29.5150,-94.5133,0.0,4.6,308.0,5.5,'11111222,11111222,11111222' 
TCOON,ioos:station:TCOON:518:1,2015-05-01T13:48:00Z,29.5150,-94.5133,0.0,5.3,306.0,6.0,'11111222,11111222,11111222' 
TCOON,ioos:station:TCOON:518:1,2015-05-01T13:54:00Z,29.5150,-94.5133,0.0,4.4,307.0,5.9,'11111222,11111222,11111222' 
TCOON,ioos:station:TCOON:518:1,2015-05-01T14:00:00Z,29.5150,-94.5133,0.0,4.7,310.0,5.9,'11111222,11111222,11111222' 
TCOON,ioos:station:TCOON:518:1,2015-05-01T14:06:00Z,29.5150,-94.5133,0.0,4.8,313.0,5.3,'11111222,11111222,11111222' 
TCOON,ioos:station:TCOON:518:1,2015-05-01T14:12:00Z,29.5150,-94.5133,0.0,4.6,312.0,5.2,'11111222,11111222,11111222' 
TCOON,ioos:station:TCOON:518:1,2015-05-01T14:18:00Z,29.5150,-94.5133,0.0,4.6,312.0,5.2,'1111122,1111122,1111122' 
TCOON,ioos:station:TCOON:518:1,2015-05-01T14:30:00Z,29.5150,-94.5133,0.0,5.1,315.0,6.0,'11111222,11111222,11111222' 
TCOON,ioos:station:TCOON:518:1,2015-05-01T14:36:00Z,29.5150,-94.5133,0.0,4.9,308.0,6.2,'11111222,11111222,11111222' 
TCOON,ioos:station:TCOON:518:1,2015-05-01T14:42:00Z,29.5150,-94.5133,0.0,4.8,309.0,5.8,'11111222,11111222,11111222' 
TCOON,ioos:station:TCOON:518:1,2015-05-01T14:48:00Z,29.5150,-94.5133,0.0,5.3,311.0,6.0,'11111222,11111222,11111222' 
TCOON,ioos:station:TCOON:518:1,2015-05-01T14:54:00Z,29.5150,-94.5133,0.0,5.0,314.0,6.2,'11111222,11111222,11111222' 
TCOON,ioos:station:TCOON:518:1,2015-05-01T15:00:00Z,29.5150,-94.5133,0.0,5.2,318.0,6.0,'11111222,11111222,11111222' 
TCOON,ioos:station:TCOON:518:1,2015-05-01T15:06:00Z,29.5150,-94.5133,0.0,4.9,317.0,6.1,'11111222,11111222,11111222' 
TCOON,ioos:station:TCOON:518:1,2015-05-01T15:12:00Z,29.5150,-94.5133,0.0,5.5,320.0,6.2,'11111222,11111222,11111222' 
TCOON,ioos:station:TCOON:518:1,2015-05-01T15:18:00Z,29.5150,-94.5133,0.0,5.5,320.0,6.2,'1111122,1111122,1111122' 
TCOON,ioos:station:TCOON:518:1,2015-05-01T15:24:00Z,29.5150,-94.5133,0.0,4.6,323.0,5.7,'11111222,11111222,11111222' 
TCOON,ioos:station:TCOON:518:1,2015-05-01T15:30:00Z,29.5150,-94.5133,0.0,5.3,320.0,5.9,'11111222,11111222,11111222' 
TCOON,ioos:station:TCOON:518:1,2015-05-01T15:36:00Z,29.5150,-94.5133,0.0,4.9,311.0,5.6,'11111222,11111222,11111222' 
TCOON,ioos:station:TCOON:518:1,2015-05-01T15:42:00Z,29.5150,-94.5133,0.0,4.7,313.0,5.7,'11111222,11111222,11111222' 
TCOON,ioos:station:TCOON:518:1,2015-05-01T15:48:00Z,29.5150,-94.5133,0.0,4.4,319.0,5.3,'11111222,11111222,11111222' 
TCOON,ioos:station:TCOON:518:1,2015-05-01T15:54:00Z,29.5150,-94.5133,0.0,3.9,317.0,5.0,'11111222,11111222,11111222' 
TCOON,ioos:station:TCOON:518:1,2015-05-01T16:00:00Z,29.5150,-94.5133,0.0,4.3,311.0,4.8,'11111222,11111222,11111222' 
TCOON,ioos:station:TCOON:518:1,2015-05-01T16:06:00Z,29.5150,-94.5133,0.0,4.5,311.0,5.2,'11111222,11111222,11111222' 
TCOON,ioos:station:TCOON:518:1,2015-05-01T16:12:00Z,29.5150,-94.5133,0.0,4.2,315.0,5.1,'11111222,11111222,11111222' 
TCOON,ioos:station:TCOON:518:1,2015-05-01T16:18:00Z,29.5150,-94.5133,0.0,4.2,315.0,5.1,'1111122,1111122,1111122' 
TCOON,ioos:station:TCOON:518:1,2015-05-01T16:24:00Z,29.5150,-94.5133,0.0,3.9,309.0,5.4,'11111222,11111222,11111222' 
TCOON,ioos:station:TCOON:518:1,2015-05-01T16:30:00Z,29.5150,-94.5133,0.0,4.3,305.0,5.3,'11111222,11111222,11111222' 
TCOON,ioos:station:TCOON:518:1,2015-05-01T16:36:00Z,29.5150,-94.5133,0.0,3.9,304.0,5.0,'11111222,11111222,11111222' 
TCOON,ioos:station:TCOON:518:1,2015-05-01T16:42:00Z,29.5150,-94.5133,0.0,4.2,309.0,4.9,'11111222,11111222,11111222' 
TCOON,ioos:station:TCOON:518:1,2015-05-01T16:48:00Z,29.5150,-94.5133,0.0,4.0,307.0,5.1,'11111222,11111222,11111222' 
TCOON,ioos:station:TCOON:518:1,2015-05-01T16:54:00Z,29.5150,-94.5133,0.0,4.0,315.0,5.0,'11111222,11111222,11111222' 
TCOON,ioos:station:TCOON:518:1,2015-05-01T17:00:00Z,29.5150,-94.5133,0.0,4.8,322.0,5.3,'11111222,11111222,11111222' 
TCOON,ioos:station:TCOON:518:1,2015-05-01T17:06:00Z,29.5150,-94.5133,0.0,4.4,323.0,4.9,'11111222,11111222,11111222' 
TCOON,ioos:station:TCOON:518:1,2015-05-01T17:12:00Z,29.5150,-94.5133,0.0,4.4,323.0,4.9,'11111222,11111222,11111222' 
TCOON,ioos:station:TCOON:518:1,2015-05-01T17:18:00Z,29.5150,-94.5133,0.0,4.4,322.0,4.9,'11111222,11111222,11111222' 
TCOON,ioos:station:TCOON:518:1,2015-05-01T17:24:00Z,29.5150,-94.5133,0.0,4.4,322.0,4.9,'1111122,1111122,1111122' 
TCOON,ioos:station:TCOON:518:1,2015-05-01T17:30:00Z,29.5150,-94.5133,0.0,4.0,318.0,4.5,'11111222,11111222,11111222' 
TCOON,ioos:station:TCOON:518:1,2015-05-01T17:36:00Z,29.5150,-94.5133,0.0,3.6,312.0,4.8,'11111222,11111222,11111222' 
TCOON,ioos:station:TCOON:518:1,2015-05-01T17:42:00Z,29.5150,-94.5133,0.0,3.6,309.0,4.7,'11111222,11111222,11111222' 
TCOON,ioos:station:TCOON:518:1,2015-05-01T17:48:00Z,29.5150,-94.5133,0.0,3.5,314.0,4.5,'11111222,11111222,11111222' 
TCOON,ioos:station:TCOON:518:1,2015-05-01T17:54:00Z,29.5150,-94.5133,0.0,3.5,302.0,4.2,'11111222,11111222,11111222' 
TCOON,ioos:station:TCOON:518:1,2015-05-01T18:00:00Z,29.5150,-94.5133,0.0,3.2,302.0,4.2,'11111222,11111222,11111222' 
TCOON,ioos:station:TCOON:518:1,2015-05-01T18:06:00Z,29.5150,-94.5133,0.0,3.4,312.0,4.5,'11111222,11111222,11111222' 
TCOON,ioos:station:TCOON:518:1,2015-05-01T18:12:00Z,29.5150,-94.5133,0.0,3.6,303.0,4.1,'11111222,11111222,11111222' 
TCOON,ioos:station:TCOON:518:1,2015-05-01T18:18:00Z,29.5150,-94.5133,0.0,3.6,303.0,4.1,'1111122,1111122,1111122' 
TCOON,ioos:station:TCOON:518:1,2015-05-01T18:24:00Z,29.5150,-94.5133,0.0,3.1,297.0,4.6,'11111222,11111222,11111222' 
TCOON,ioos:station:TCOON:518:1,2015-05-01T18:30:00Z,29.5150,-94.5133,0.0,3.1,298.0,4.4,'11111222,11111222,11111222' 
TCOON,ioos:station:TCOON:518:1,2015-05-01T18:36:00Z,29.5150,-94.5133,0.0,3.5,303.0,4.4,'11111222,11111222,11111222' 
TCOON,ioos:station:TCOON:518:1,2015-05-01T18:42:00Z,29.5150,-94.5133,0.0,3.3,312.0,3.9,'11111222,11111222,11111222' 
TCOON,ioos:station:TCOON:518:1,2015-05-01T18:48:00Z,29.5150,-94.5133,0.0,2.9,315.0,3.6,'11111222,11111222,11111222' 
TCOON,ioos:station:TCOON:518:1,2015-05-01T18:54:00Z,29.5150,-94.5133,0.0,2.5,307.0,3.3,'11111222,11111222,11111222' 
TCOON,ioos:station:TCOON:518:1,2015-05-01T19:00:00Z,29.5150,-94.5133,0.0,2.3,303.0,3.7,'11111222,11111222,11111222' 
TCOON,ioos:station:TCOON:518:1,2015-05-01T19:06:00Z,29.5150,-94.5133,0.0,3.2,309.0,3.9,'11111222,11111222,11111222' 
TCOON,ioos:station:TCOON:518:1,2015-05-01T19:12:00Z,29.5150,-94.5133,0.0,2.4,314.0,4.0,'11111222,11111222,11111222' 
TCOON,ioos:station:TCOON:518:1,2015-05-01T19:18:00Z,29.5150,-94.5133,0.0,2.4,314.0,4.0,'1111122,1111122,1111122' 
TCOON,ioos:station:TCOON:518:1,2015-05-01T19:24:00Z,29.5150,-94.5133,0.0,0.5,253.0,2.0,'11111222,11111222,11111222' 
TCOON,ioos:station:TCOON:518:1,2015-05-01T19:30:00Z,29.5150,-94.5133,0.0,2.8,324.0,3.3,'11111222,11111222,11111222' 
TCOON,ioos:station:TCOON:518:1,2015-05-01T19:36:00Z,29.5150,-94.5133,0.0,2.2,323.0,3.2,'11111222,11111222,11111222' 
TCOON,ioos:station:TCOON:518:1,2015-05-01T19:42:00Z,29.5150,-94.5133,0.0,1.8,333.0,2.9,'11111222,11111222,11111222' 
TCOON,ioos:station:TCOON:518:1,2015-05-01T19:48:00Z,29.5150,-94.5133,0.0,0.8,7.0,2.5,'11111222,11111222,11111222' 
TCOON,ioos:station:TCOON:518:1,2015-05-01T19:54:00Z,29.5150,-94.5133,0.0,0.9,339.0,2.1,'11111222,11111222,11111222' 
TCOON,ioos:station:TCOON:518:1,2015-05-01T20:00:00Z,29.5150,-94.5133,0.0,0.9,211.0,2.1,'11111222,11111222,11111222' 
TCOON,ioos:station:TCOON:518:1,2015-05-01T20:06:00Z,29.5150,-94.5133,0.0,2.7,337.0,3.5,'11111222,11111222,11111222' 
TCOON,ioos:station:TCOON:518:1,2015-05-01T20:12:00Z,29.5150,-94.5133,0.0,1.6,280.0,2.4,'11111222,11111222,11111222' 
TCOON,ioos:station:TCOON:518:1,2015-05-01T20:18:00Z,29.5150,-94.5133,0.0,1.6,280.0,2.4,'1111122,1111122,1111122' 
TCOON,ioos:station:TCOON:518:1,2015-05-01T20:24:00Z,29.5150,-94.5133,0.0,2.3,210.0,3.7,'11111222,11111222,11111222' 
TCOON,ioos:station:TCOON:518:1,2015-05-01T20:30:00Z,29.5150,-94.5133,0.0,1.9,215.0,4.6,'11111222,11111222,11111222' 
TCOON,ioos:station:TCOON:518:1,2015-05-01T20:36:00Z,29.5150,-94.5133,0.0,2.3,200.0,4.3,'11111222,11111222,11111222' 
TCOON,ioos:station:TCOON:518:1,2015-05-01T20:42:00Z,29.5150,-94.5133,0.0,2.9,208.0,4.7,'11111222,11111222,11111222' 
TCOON,ioos:station:TCOON:518:1,2015-05-01T20:48:00Z,29.5150,-94.5133,0.0,3.5,210.0,4.5,'11111222,11111222,11111222' 
TCOON,ioos:station:TCOON:518:1,2015-05-01T20:54:00Z,29.5150,-94.5133,0.0,3.1,199.0,4.8,'11111222,11111222,11111222' 
TCOON,ioos:station:TCOON:518:1,2015-05-01T21:00:00Z,29.5150,-94.5133,0.0,3.3,207.0,5.2,'11111222,11111222,11111222' 
TCOON,ioos:station:TCOON:518:1,2015-05-01T21:06:00Z,29.5150,-94.5133,0.0,2.9,212.0,5.1,'11111222,11111222,11111222' 
TCOON,ioos:station:TCOON:518:1,2015-05-01T21:12:00Z,29.5150,-94.5133,0.0,3.6,207.0,5.1,'11111222,11111222,11111222' 
TCOON,ioos:station:TCOON:518:1,2015-05-01T21:18:00Z,29.5150,-94.5133,0.0,3.6,207.0,5.1,'1111122,1111122,1111122' 
TCOON,ioos:station:TCOON:518:1,2015-05-01T21:24:00Z,29.5150,-94.5133,0.0,3.6,205.0,5.4,'11111222,11111222,11111222' 
TCOON,ioos:station:TCOON:518:1,2015-05-01T21:30:00Z,29.5150,-94.5133,0.0,2.6,198.0,4.4,'11111222,11111222,11111222' 
TCOON,ioos:station:TCOON:518:1,2015-05-01T21:36:00Z,29.5150,-94.5133,0.0,3.4,204.0,4.8,'11111222,11111222,11111222' 